Stations météo

réclame
Mon MeteoGroup
Emden, Allemagne (10200): Température de l'air & dewpoint: 11.08.2018 19:00:00 - 17.08.2018 19:00:00 (CEST)Emden, Allemagne (10200): Température de l'air 5cm & Température de l'air -5cm: 11.08.2018 19:00:00 - 17.08.2018 19:00:00 (CEST)Emden, Allemagne (10200): Température de l'air -20cm & Température de l'air -100cm: 11.08.2018 19:00:00 - 17.08.2018 19:00:00 (CEST)Emden, Allemagne (10200): Vitesse du vent & gusts: 11.08.2018 19:00:00 - 17.08.2018 19:00:00 (CEST)Emden, Allemagne (10200): Direction du vent: 11.08.2018 19:00:00 - 17.08.2018 19:00:00 (CEST)Emden, Allemagne (10200): reduced air pressure: 11.08.2018 19:00:00 - 17.08.2018 19:00:00 (CEST)Emden, Allemagne (10200): visibility: 11.08.2018 19:00:00 - 17.08.2018 19:00:00 (CEST)Emden, Allemagne (10200): Ensoleillement: 11.08.2018 19:00:00 - 17.08.2018 19:00:00 (CEST)Emden, Allemagne (10200): Quantités de précipitations: 11.08.2018 19:00:00 - 17.08.2018 19:00:00 (CEST)
Date & Time tt [°C] td [°C] tt 5cm [°C] tt -5cm [°C] tt -20cm [°C] tt -100cm [°C] ff [km/h] ff [knt] fx [km/h] fx [knt] dd ppp [hPa] vv [km] sd [min] rr [mm]
17.08.2018 19:00:00 19,8 11,5 21,7 25,6 21,8 19,0 16 9 25 14 WNW 1018,9 64 58 0,0
17.08.2018 18:00:00 20,7 10,0 24,0 26,1 21,6 19,0 14 8 35 19 WNW 1018,9 70 57 0,0
17.08.2018 17:00:00 21,0 10,0 25,3 26,0 21,3 19,0 16 9 32 17 WNW 1018,8 56 60 0,0
17.08.2018 16:00:00 21,6 11,2 26,4 25,3 21,1 19,0 19 11 32 17 W 1018,5 65 55 0,0
17.08.2018 15:00:00 21,5 13,0 27,5 23,9 20,9 19,0 17 9 28 15 WNW 1018,4 75 23 0,0
17.08.2018 14:00:00 20,8 12,6 23,9 23,7 20,7 19,0 11 6 23 12 W 1017,9 47 52 0,0
17.08.2018 13:00:00 20,4 12,3 25,2 22,3 20,7 19,0 10 6 18 10 WSW 1017,9 54 51 0,0
17.08.2018 12:00:00 18,4 14,0 19,2 20,8 20,7 19,0 8 5 15 8 W 1018,0 44 0 0,0
17.08.2018 11:00:00 17,7 14,4 18,6 19,9 20,7 19,0 10 5 17 9 W 1017,7 62 0 0,0
17.08.2018 10:00:00 16,9 14,7 17,2 19,6 20,8 19,0 10 5 15 8 WSW 1017,1 52 0 0,0
17.08.2018 09:00:00 16,4 14,9 17,1 18,8 20,9 19,0 8 5 13 7 W 1016,3 32 0 0,0
17.08.2018 08:00:00 15,2 14,5 15,3 18,6 21,0 19,0 5 3 10 5 WSW 1016,0 28 0 0,1
17.08.2018 07:00:00 15,0 14,2 14,7 18,7 21,1 19,0 8 5 16 8 W 1015,6 8 0 1,7
17.08.2018 06:00:00 15,7 14,8 15,2 18,9 21,2 19,0 4 2 12 7 S 1015,7 16 0 0,6
17.08.2018 05:00:00 16,1 14,4 15,5 19,0 21,4 19,0 7 4 12 6 SW 1015,8 12 0 0,1
17.08.2018 04:00:00 15,9 14,1 15,3 19,1 21,5 19,0 9 5 13 7 W 1015,1 45 0 0,0
17.08.2018 03:00:00 15,4 13,9 13,0 19,3 21,7 19,0 4 2 7 4 W 1014,7 49 0 0,0
17.08.2018 02:00:00 16,0 14,7 13,1 19,7 21,9 19,0 3 2 5 3 WSW 1014,7 56 0 0,0
17.08.2018 01:00:00 15,8 14,8 13,1 20,1 22,0 19,0 4 2 8 4 SSE 1014,8 53 0 0,0
17.08.2018 00:00:00 15,5 14,7 13,2 20,6 22,1 19,0 4 2 8 4 SE 1014,7 47 0 0,0
16.08.2018 23:00:00 14,7 14,0 11,8 21,4 22,2 19,0 4 2 8 4 S 1014,7 54 0 0,0
16.08.2018 22:00:00 16,4 14,2 13,6 22,3 22,2 19,0 3 1 25 14 WSW 1014,9 68 0 0,0
16.08.2018 21:00:00 18,2 15,7 18,4 23,2 22,2 19,0 19 10 31 17 W 1014,9 63 0 0,0
16.08.2018 20:00:00 21,1 14,9 20,7 24,2 22,0 19,1 13 7 29 15 WSW 1014,3 57 35 0,0
16.08.2018 19:00:00 21,9 15,1 22,5 24,9 21,9 19,1 12 6 28 15 SW 1014,1 68 4 0,0
16.08.2018 18:00:00 22,3 15,0 23,3 25,5 21,6 19,1 21 11 33 18 WSW 1014,1 52 4 0,0
16.08.2018 17:00:00 23,3 14,3 24,8 26,1 21,3 19,1 18 10 29 16 SSW 1013,8 45 9 0,0
16.08.2018 16:00:00 23,3 14,1 25,6 26,3 21,0 19,1 18 10 34 19 SSW 1013,7 60 28 0,0
16.08.2018 15:00:00 23,7 15,0 28,3 25,7 20,7 19,1 16 8 36 19 SSW 1014,1 72 40 0,0
16.08.2018 14:00:00 22,7 14,2 27,5 24,3 20,5 19,1 21 11 39 21 SSW 1014,4 55 14 0,0
16.08.2018 13:00:00 22,4 14,3 26,5 23,9 20,2 19,1 22 12 41 22 SW 1014,4 61 26 0,0
16.08.2018 12:00:00 21,7 14,4 26,2 22,4 20,1 19,1 24 13 38 21 SSW 1014,5 41 51 0,0
16.08.2018 11:00:00 20,5 14,7 23,7 21,0 20,0 19,1 20 11 34 19 SSW 1014,6 31 60 0,0
16.08.2018 10:00:00 19,0 14,9 21,1 19,7 20,0 19,1 19 10 36 19 SSW 1014,8 22 59 0,0
16.08.2018 09:00:00 17,8 14,5 19,7 18,6 20,1 19,1 16 9 31 17 S 1015,0 20 51 0,0
16.08.2018 08:00:00 16,8 14,2 17,5 18,0 20,2 19,1 15 8 31 17 SSW 1015,3 17 51 0,0
16.08.2018 07:00:00 17,0 14,5 16,5 18,0 20,3 19,1 14 8 28 15 S 1015,3 18 3 0,0
16.08.2018 06:00:00 17,7 14,7 17,5 18,3 20,4 19,1 15 8 27 14 S 1015,3 19 0 0,0
16.08.2018 05:00:00 17,5 14,9 16,5 18,3 20,5 19,1 10 6 21 12 S 1015,7 14 0 0,0
16.08.2018 04:00:00 17,8 15,3 17,1 18,4 20,6 19,1 9 5 18 10 S 1016,0 12 0 0,0
16.08.2018 03:00:00 18,4 15,2 17,7 18,5 20,7 19,1 8 4 16 8 S 1016,5 16 0 0,0
16.08.2018 02:00:00 17,2 15,4 15,8 18,7 20,8 19,1 6 4 10 6 S 1016,9 14 0 0,0
16.08.2018 01:00:00 17,7 15,3 15,7 19,2 20,9 19,1 8 4 14 8 SSW 1017,1 19 0 0,0
16.08.2018 00:00:00 18,7 15,4 17,4 19,7 21,0 19,1 9 5 16 8 SSW 1017,2 21 0 0,0
15.08.2018 23:00:00 19,5 15,3 18,4 20,2 21,0 19,1 8 4 16 9 SW 1017,5 25 0 0,0
15.08.2018 22:00:00 19,9 16,0 19,4 20,6 21,0 19,1 8 4 18 10 WSW 1017,5 25 0 0,0
15.08.2018 21:00:00 21,0 16,5 20,5 21,0 21,0 19,1 11 6 20 11 SSW 1017,1 22 0 0,0
15.08.2018 20:00:00 21,4 16,4 21,4 21,4 21,0 19,1 12 6 28 15 SSW 1017,0 24 0 0,0
15.08.2018 19:00:00 22,0 16,8 22,4 21,7 20,9 19,2 19 10 29 16 SSW 1017,1 24 0 0,0
15.08.2018 18:00:00 20,8 16,5 20,8 21,8 20,8 19,2 10 5 34 18 SW 1017,3 21 0 0,0
15.08.2018 17:00:00 23,1 15,9 23,7 22,3 20,7 19,2 10 5 26 14 SSW 1017,2 38 0 0,0
15.08.2018 16:00:00 23,4 16,1 24,8 22,4 20,6 19,2 13 7 26 14 SSW 1017,2 49 0 0,0
15.08.2018 15:00:00 22,9 15,1 23,7 22,1 20,4 19,2 16 8 26 14 SW 1017,3 64 0 0,0
15.08.2018 14:00:00 22,8 15,7 23,7 22,4 20,3 19,2 13 7 27 15 SW 1017,3 54 8 0,0
15.08.2018 13:00:00 22,4 15,6 23,5 22,4 20,1 19,2 12 6 26 14 SW 1017,1 45 21 0,0
15.08.2018 12:00:00 22,7 16,9 25,7 21,6 20,0 19,2 13 7 23 13 SW 1017,2 37 35 0,0
15.08.2018 11:00:00 20,6 17,0 22,3 20,2 20,0 19,2 13 7 24 13 SW 1017,3 22 14 0,0
15.08.2018 10:00:00 19,1 16,1 20,3 18,9 20,0 19,2 13 7 22 12 SSW 1017,1 18 1 0,0
15.08.2018 09:00:00 17,9 15,6 18,0 18,5 20,1 19,2 10 6 17 9 SSW 1016,7 18 0 0,0
15.08.2018 08:00:00 17,9 15,8 18,0 18,3 20,1 19,2 9 5 14 8 SSW 1016,3 19 0 0,0
15.08.2018 07:00:00 17,5 15,6 17,2 18,1 20,2 19,2 8 4 13 7 SSW 1015,9 17 0 0,0
15.08.2018 06:00:00 17,4 15,6 17,0 18,0 20,3 19,2 7 4 13 7 SW 1015,8 16 0 0,0
15.08.2018 05:00:00 16,8 15,3 15,4 18,1 20,4 19,2 7 4 18 10 WSW 1016,0 14 0 0,0
15.08.2018 04:00:00 17,1 15,2 16,5 18,2 20,5 19,2 10 5 18 10 WSW 1016,1 18 0 0,0
15.08.2018 03:00:00 17,3 15,0 16,8 18,4 20,6 19,2 9 5 20 11 SW 1015,9 28 0 0,0
15.08.2018 02:00:00 17,5 14,3 17,1 18,5 20,7 19,2 10 5 16 9 SW 1016,1 60 0 0,0
15.08.2018 01:00:00 17,3 14,2 16,8 18,6 20,9 19,2 8 4 13 7 SW 1016,0 58 0 0,0
15.08.2018 00:00:00 16,8 13,9 16,5 18,8 21,0 19,2 8 4 16 9 WSW 1016,0 51 0 0,0
14.08.2018 23:00:00 17,0 13,9 16,1 19,1 21,1 19,2 11 6 18 10 WSW 1015,8 45 0 0,0
14.08.2018 22:00:00 16,8 13,7 15,6 19,5 21,1 19,2 8 5 19 11 WSW 1015,7 56 0 0,0
14.08.2018 21:00:00 17,6 14,0 16,8 20,3 21,2 19,2 15 8 24 13 W 1015,3 50 0 0,0
14.08.2018 20:00:00 18,5 13,3 18,0 21,2 21,1 19,2 17 9 37 20 W 1014,5 53 39 0,0
14.08.2018 19:00:00 20,0 14,2 20,8 22,0 21,0 19,2 25 13 46 25 WNW 1014,2 44 30 0,0
14.08.2018 18:00:00 20,2 14,2 21,5 22,6 20,9 19,3 26 14 51 28 WNW 1013,8 49 40 0,0
14.08.2018 17:00:00 20,3 14,7 22,0 22,5 20,8 19,3 34 18 49 27 W 1013,1 40 34 0,0
14.08.2018 16:00:00 20,3 16,2 21,7 22,2 20,7 19,3 34 19 49 27 W 1012,6 39 30 0,0
14.08.2018 15:00:00 20,2 16,1 20,5 21,3 20,7 19,3 35 19 50 27 W 1011,6 51 4 0,1
14.08.2018 14:00:00 19,2 15,7 19,5 21,3 20,6 19,3 26 14 43 23 W 1011,1 35 1 0,0
14.08.2018 13:00:00 19,2 15,9 19,0 21,6 20,5 19,3 22 12 40 22 W 1010,4 71 0 0,0
14.08.2018 12:00:00 20,0 16,7 22,0 21,7 20,4 19,3 23 12 38 20 W 1009,6 71 32 0,0
14.08.2018 11:00:00 20,4 17,0 22,6 20,6 20,4 19,3 23 12 34 19 WNW 1008,7 75 17 0,1
14.08.2018 10:00:00 18,2 17,2 18,6 19,6 20,4 19,3 12 7 27 14 WSW 1008,1 27 4 0,0
14.08.2018 09:00:00 17,8 16,8 18,2 18,8 20,5 19,3 14 8 24 13 WSW 1007,7 40 0 0,5
14.08.2018 08:00:00 17,4 16,4 17,2 18,5 20,6 19,3 14 7 23 13 WSW 1007,2 2,3 0 0,8
14.08.2018 07:00:00 17,0 16,0 16,6 18,4 20,7 19,3 11 6 21 11 SW 1006,6 19 0 0,0
14.08.2018 06:00:00 16,8 16,0 16,3 18,4 20,8 19,3 10 5 18 10 SSW 1006,4 17 0 0,0
14.08.2018 05:00:00 17,0 16,1 16,4 18,6 20,9 19,3 9 5 20 11 SW 1006,3 12 0 0,0
14.08.2018 04:00:00 16,9 15,9 16,3 18,9 21,0 19,3 9 5 19 11 SW 1006,3 12 0 0,0
14.08.2018 03:00:00 17,4 16,1 17,1 19,1 21,1 19,3 12 7 20 11 SW 1006,2 14 0 0,0
14.08.2018 02:00:00 17,3 16,0 16,8 19,3 21,2 19,3 13 7 19 11 SSW 1006,2 16 0 0,0
14.08.2018 01:00:00 17,7 15,7 17,0 19,5 21,3 19,3 9 5 19 10 SW 1005,9 21 0 0,0
14.08.2018 00:00:00 17,7 16,0 17,3 19,7 21,4 19,3 9 5 20 11 WSW 1005,8 22 0 0,0
13.08.2018 23:00:00 17,6 16,0 17,2 20,0 21,5 19,3 12 6 23 12 WSW 1005,5 24 0 0,0
13.08.2018 22:00:00 17,6 16,5 17,1 20,6 21,5 19,3 13 7 23 13 WSW 1005,2 19 0 0,0
13.08.2018 21:00:00 18,3 16,9 17,9 21,4 21,5 19,3 14 8 24 13 WSW 1004,5 7 0 0,0
13.08.2018 20:00:00 19,4 17,1 19,6 21,9 21,5 19,3 9 5 16 9 W 1004,1 17 0 0,0
13.08.2018 19:00:00 19,1 17,1 19,5 22,0 21,5 19,3 10 5 20 11 WSW 1004,0 16 3 0,0
13.08.2018 18:00:00 18,8 17,1 19,6 21,8 21,4 19,3 10 5 16 9 SW 1004,2 19 0 0,0
13.08.2018 17:00:00 17,7 17,5 18,1 21,6 21,3 19,3 14 8 32 18 W 1004,4 11 0 13,7
13.08.2018 16:00:00 20,8 15,5 21,2 24,7 20,9 19,3 18 10 31 17 W 1004,0 38 0 0,0
13.08.2018 15:00:00 24,1 14,3 26,8 25,7 20,6 19,3 16 8 25 13 S 1003,8 50 52 0,0
13.08.2018 14:00:00 23,9 14,6 28,4 23,4 20,5 19,3 12 6 29 15 S 1004,5 59 38 0,0
13.08.2018 13:00:00 22,2 14,0 24,1 21,5 20,4 19,3 14 7 25 13 SSE 1005,0 70 0 0,0
13.08.2018 12:00:00 21,8 14,2 24,3 21,0 20,3 19,3 12 7 17 9 SSE 1005,2 52 0 0,0
13.08.2018 11:00:00 20,9 13,8 23,2 20,1 20,3 19,3 5 3 16 8 SSE 1005,2 51 3 0,0
13.08.2018 10:00:00 18,8 15,0 19,5 19,3 20,3 19,3 9 5 15 8 SE 1005,4 27 0 0,0
13.08.2018 09:00:00 18,4 15,3 18,2 19,0 20,4 19,3 8 4 15 8 SE 1005,7 25 0 0,0
13.08.2018 08:00:00 17,5 15,1 17,5 18,8 20,4 19,3 4 2 6 4 NE 1005,5 21 0 0,0
13.08.2018 07:00:00 17,1 15,4 16,2 18,7 20,5 19,3 4 2 7 4 SSE 1005,7 20 0 0,0
13.08.2018 06:00:00 17,1 15,2 16,3 18,7 20,6 19,4 0 0 6 4 N 1006,1 26 0 0,0
13.08.2018 05:00:00 16,5 15,2 16,0 18,8 20,6 19,4 6 3 10 5 E 1006,4 25 0 0,0
13.08.2018 04:00:00 16,7 15,1 15,8 18,9 20,7 19,4 3 1 9 5 NE 1007,1 31 0 0,0
13.08.2018 03:00:00 16,8 15,0 15,9 19,0 20,8 19,4 4 2 8 4 ENE 1007,7 37 0 0,0
13.08.2018 02:00:00 16,7 14,9 15,3 19,1 20,8 19,4 3 1 8 4 NE 1008,3 38 0 0,0
13.08.2018 01:00:00 16,8 14,7 15,2 19,3 20,9 19,4 6 3 8 4 ENE 1008,9 37 0 0,0
13.08.2018 00:00:00 17,7 14,7 15,2 19,7 20,9 19,4 5 3 9 5 NNE 1009,2 48 0 0,0
12.08.2018 23:00:00 18,6 14,9 17,2 20,2 20,9 19,4 8 4 11 6 N 1009,8 60 0 0,0
12.08.2018 22:00:00 18,9 15,2 17,6 20,7 20,8 19,4 5 3 7 4 ESE 1010,1 35 0 0,0
12.08.2018 21:00:00 21,6 14,4 19,3 21,1 20,8 19,4 3 2 13 7 SSW 1010,3 66 0 0,0
12.08.2018 20:00:00 22,9 13,0 22,2 21,5 20,6 19,4 8 4 21 11 WSW 1010,5 75 0 0,0
12.08.2018 19:00:00 23,6 13,2 23,8 21,8 20,5 19,4 10 5 24 13 WSW 1010,9 75 4 0,0
12.08.2018 18:00:00 23,7 12,4 24,1 22,1 20,3 19,4 14 7 31 17 WSW 1011,4 75 27 0,0
12.08.2018 17:00:00 24,6 13,1 26,4 21,7 20,2 19,4 18 10 32 17 SW 1011,9 75 18 0,0
12.08.2018 16:00:00 24,1 12,7 26,1 21,4 20,0 19,4 18 10 35 19 SSW 1012,7 63 15 0,0
12.08.2018 15:00:00 22,9 12,4 23,8 21,0 19,9 19,4 19 10 42 23 SW 1013,3 75 3 0,0
12.08.2018 14:00:00 21,6 13,4 23,1 20,3 19,8 19,4 17 9 34 19 S 1013,8 60 0 0,0
12.08.2018 13:00:00 19,6 12,7 20,8 19,7 19,7 19,4 14 8 27 15 S 1014,5 52 0 0,0
12.08.2018 12:00:00 17,6 11,9 19,3 18,7 19,7 19,4 12 7 22 12 SSE 1015,2 53 0 0,0
12.08.2018 11:00:00 16,8 11,1 17,9 18,3 19,7 19,4 13 7 24 13 SSW 1015,9 42 0 0,0
12.08.2018 10:00:00 16,7 10,7 18,0 17,6 19,7 19,4 12 7 22 12 S 1016,0 55 0 0,0
12.08.2018 09:00:00 15,0 10,8 15,7 16,7 19,8 19,4 8 4 15 8 S 1016,6 49 0 0,0
12.08.2018 08:00:00 13,3 10,2 13,9 16,1 19,9 19,4 9 5 15 8 S 1016,9 46 0 0,0
12.08.2018 07:00:00 12,9 10,4 12,4 15,7 20,0 19,4 8 4 12 6 SSE 1017,5 44 0 0,0
12.08.2018 06:00:00 12,3 10,7 11,1 15,8 20,2 19,4 6 3 13 7 SE 1017,6 27 0 0,0
12.08.2018 05:00:00 13,3 10,6 11,6 15,9 20,3 19,4 7 4 12 7 SSW 1018,1 54 0 0,0
12.08.2018 04:00:00 13,7 10,6 12,0 15,9 20,5 19,4 6 4 10 6 SW 1018,6 54 0 0,0
12.08.2018 03:00:00 13,1 10,4 9,2 16,1 20,7 19,4 6 3 10 5 SSW 1018,9 57 0 0,0
12.08.2018 02:00:00 14,0 10,6 10,8 16,3 20,8 19,4 5 3 11 6 SW 1019,4 57 0 0,0
12.08.2018 01:00:00 12,9 10,4 8,0 16,6 21,0 19,3 5 3 10 5 SW 1019,9 58 0 0,0
12.08.2018 00:00:00 13,8 10,3 11,5 17,0 21,1 19,4 7 4 15 8 WSW 1020,4 75 0 0,0
11.08.2018 23:00:00 14,2 10,5 12,4 17,6 21,3 19,3 9 5 18 10 WSW 1020,7 60 0 0,0
11.08.2018 22:00:00 14,4 10,3 12,4 18,2 21,4 19,3 9 5 20 11 WSW 1020,8 64 0 0,0
11.08.2018 21:00:00 15,9 11,4 14,3 19,1 21,4 19,3 13 7 27 15 W 1020,6 67 0 0,0
11.08.2018 20:00:00 17,7 11,9 17,3 19,7 21,4 19,3 20 11 30 16 W 1020,4 61 11 0,1
11.08.2018 19:00:00 17,7 11,8 17,6 20,0 21,4 19,3 21 11 34 18 W 1020,6 70 8 0,0

tt = Température de l'air
td = dewpoint
tt 5cm = Température de l'air 5cm
tt -5cm = Température de l'air -5cm
tt -20cm = Température de l'air -20cm
tt -100cm = Température de l'air -100cm
ff = Vitesse du vent
fx = gusts
dd = Direction du vent
ppp = reduced air pressure
vv = visibility
sd = Ensoleillement
rr = Quantités de précipitations

stations d'obs. à proximité